Radioactive Concentration measured by Seawater Radiation Monitor near Fukushima Daiichi Nuclear Power Station
Date,Time,Cs137(Bq/L),Cs134(Bq/L),Total β(Bq/L)
2016/11/04,00:00,0.72,0.070,ND
2016/11/04,00:10,0.72,0.064,ND
2016/11/04,00:20,0.71,0.068,ND
2016/11/04,00:30,0.72,0.057,ND
2016/11/04,00:40,0.73,0.066,ND
2016/11/04,00:50,0.72,0.073,ND
2016/11/04,01:00,0.71,0.079,ND
2016/11/04,01:10,0.71,0.084,ND
2016/11/04,01:20,0.72,0.086,9.3
2016/11/04,01:30,0.71,0.089,ND
2016/11/04,01:40,0.71,0.085,ND
2016/11/04,01:50,0.70,0.086,ND
2016/11/04,02:00,0.71,0.083,ND
2016/11/04,02:10,0.68,0.081,ND
2016/11/04,02:20,0.65,0.058,ND
2016/11/04,02:30,0.62,0.065,ND
2016/11/04,02:40,0.63,0.048,ND
2016/11/04,02:50,0.62,0.060,ND
2016/11/04,03:00,0.61,0.069,ND
2016/11/04,03:10,0.64,0.069,ND
2016/11/04,03:20,0.62,0.071,ND
2016/11/04,03:30,0.61,0.069,ND
2016/11/04,03:40,0.59,0.083,ND
2016/11/04,03:50,0.61,0.082,ND
2016/11/04,04:00,0.63,0.074,9.5
2016/11/04,04:10,0.62,0.059,ND
2016/11/04,04:20,0.64,0.055,ND
2016/11/04,04:30,0.64,0.061,ND
2016/11/04,04:40,0.65,0.064,ND
2016/11/04,04:50,0.63,0.075,ND
2016/11/04,05:00,0.62,0.069,ND
2016/11/04,05:10,0.60,0.084,ND
2016/11/04,05:20,0.62,0.074,ND
2016/11/04,05:30,0.63,0.067,ND
2016/11/04,05:40,0.63,0.059,ND
2016/11/04,05:50,0.61,0.064,ND
2016/11/04,06:00,0.60,0.058,ND
2016/11/04,06:10,0.61,0.051,ND
2016/11/04,06:20,0.60,0.059,ND
2016/11/04,06:30,0.59,0.059,ND
2016/11/04,06:40,0.57,0.071,ND
2016/11/04,06:50,0.57,0.060,ND
2016/11/04,07:00,0.56,0.071,ND
2016/11/04,07:10,0.54,0.073,ND
2016/11/04,07:20,0.54,0.074,ND
2016/11/04,07:30,0.54,0.079,ND
2016/11/04,07:40,0.55,0.065,ND
2016/11/04,07:50,0.57,0.063,ND
2016/11/04,08:00,0.60,0.054,ND
2016/11/04,08:10,0.61,0.054,ND
2016/11/04,08:20,0.61,0.052,ND
2016/11/04,08:30,0.60,0.051,ND
2016/11/04,08:40,0.59,0.059,ND
2016/11/04,08:50,0.57,0.065,ND
2016/11/04,09:00,0.56,0.072,ND
2016/11/04,09:10,0.56,0.080,ND
2016/11/04,09:20,0.58,0.076,9.3
2016/11/04,09:30,0.61,0.076,ND
2016/11/04,09:40,0.61,0.071,ND
2016/11/04,09:50,0.64,0.076,ND
2016/11/04,10:00,0.66,0.080,ND
2016/11/04,10:10,0.67,0.074,ND
2016/11/04,10:20,0.66,0.078,ND
2016/11/04,10:30,0.66,0.076,ND
2016/11/04,10:40,0.68,0.086,ND
2016/11/04,10:50,0.68,0.082,ND
2016/11/04,11:00,0.68,0.078,ND
2016/11/04,11:10,0.69,0.072,ND
2016/11/04,11:20,0.68,0.075,ND
2016/11/04,11:30,0.70,0.074,ND
2016/11/04,11:40,0.68,0.070,ND
2016/11/04,11:50,0.67,0.077,ND
2016/11/04,12:00,0.68,0.078,9.7
2016/11/04,12:10,0.68,0.083,ND
2016/11/04,12:20,0.69,0.086,ND
2016/11/04,12:30,0.68,0.074,ND
2016/11/04,12:40,0.68,0.072,ND
2016/11/04,12:50,0.68,0.065,ND
2016/11/04,13:00,0.67,0.056,ND
2016/11/04,13:10,0.68,0.059,ND
2016/11/04,13:20,0.67,0.057,ND
2016/11/04,13:30,0.68,0.063,9.6
2016/11/04,13:40,0.66,0.059,ND
2016/11/04,13:50,0.64,0.065,ND
2016/11/04,14:00,0.65,0.067,ND
2016/11/04,14:10,0.62,0.065,9.9
2016/11/04,14:20,0.62,0.060,ND
2016/11/04,14:30,0.59,0.067,ND
2016/11/04,14:40,0.58,0.077,9.2
2016/11/04,14:50,0.59,0.066,ND
2016/11/04,15:00,0.56,0.081,ND
2016/11/04,15:10,0.57,0.082,ND
2016/11/04,15:20,0.56,0.088,ND
2016/11/04,15:30,0.57,0.091,ND
2016/11/04,15:40,0.57,0.087,ND
2016/11/04,15:50,0.57,0.086,ND
2016/11/04,16:00,0.57,0.079,ND
2016/11/04,16:10,0.58,0.072,ND
2016/11/04,16:20,0.60,0.060,ND
2016/11/04,16:30,0.60,0.052,ND
2016/11/04,16:40,0.60,0.046,ND
2016/11/04,16:50,0.62,0.045,ND
2016/11/04,17:00,0.64,0.039,ND
2016/11/04,17:10,0.61,0.039,ND
2016/11/04,17:20,0.60,0.051,ND
2016/11/04,17:30,0.57,0.052,ND
2016/11/04,17:40,0.58,0.056,ND
2016/11/04,17:50,0.59,0.054,ND
2016/11/04,18:00,0.56,0.058,ND
2016/11/04,18:10,0.56,0.067,ND
2016/11/04,18:20,0.55,0.067,ND
2016/11/04,18:30,0.57,0.067,ND
2016/11/04,18:40,0.55,0.074,ND
2016/11/04,18:50,0.56,0.070,ND
2016/11/04,19:00,0.55,0.080,ND
2016/11/04,19:10,0.57,0.070,ND
2016/11/04,19:20,0.61,0.063,ND
2016/11/04,19:30,0.66,0.056,ND
2016/11/04,19:40,0.70,0.056,ND
2016/11/04,19:50,0.72,0.068,ND
2016/11/04,20:00,0.78,0.066,ND
2016/11/04,20:10,0.83,0.071,ND
2016/11/04,20:20,0.83,0.091,ND
2016/11/04,20:30,0.84,0.11,ND
2016/11/04,20:40,0.83,0.11,ND
2016/11/04,20:50,0.82,0.11,ND
2016/11/04,21:00,0.82,0.11,ND
2016/11/04,21:10,0.80,0.11,ND
2016/11/04,21:20,0.82,0.11,ND
2016/11/04,21:30,0.83,0.11,ND
2016/11/04,21:40,0.85,0.096,ND
2016/11/04,21:50,0.87,0.096,ND
2016/11/04,22:00,0.88,0.094,ND
2016/11/04,22:10,0.88,0.090,ND
2016/11/04,22:20,0.86,0.079,ND
2016/11/04,22:30,0.83,0.085,ND
2016/11/04,22:40,0.83,0.088,ND
2016/11/04,22:50,0.84,0.091,ND
2016/11/04,23:00,0.81,0.095,ND
2016/11/04,23:10,0.79,0.098,ND
2016/11/04,23:20,0.79,0.10,ND
2016/11/04,23:30,0.81,0.081,ND
2016/11/04,23:40,0.77,0.073,ND
2016/11/04,23:50,0.72,0.072,ND
